Location: Devore Heights
(34.2372°N, 117.4156°W)
Time: 05:53:51
(UTC+00:00)

ARIANE 6 FM1 Upper Stage - Pass Details

Date: 20 August 2024
Orbit: 567 x 594 km, 62.0° (Epoch: 06 September)

Event Time Altitude Azimuth Distance (km) Brightness Sun altitude
Exits shadow 11:12:39 - 148° (SSE) 1,982 5.4 -23.7°
Reaches altitude 10° 11:13:06 10° 143° (SE) 1,886 5.4 -23.6°
Maximum altitude 11:15:17 14° 112° (ESE) 1,656 5.4 -23.2°
Drops below altitude 10° 11:17:29 10° 80° (E) 1,902 6.3 -22.9°
Sets 11:20:42 0° 55° (NE) 2,813 7.8 -22.3°
